www.pogodaiklimat.ru

Погода и климат >> Архив погоды >> Россия >> Магаданская область >> Остров Спафарьева


ПОГОДА на Остров Спафарьева

  • Прогноз погоды на Остров Спафарьева
  • Монитор погоды на Остров Спафарьева
  • Климат города

АРХИВ ПОГОДЫ на Остров Спафарьева

Время (UTC), дата Ветер
(напр.,м/с)
 
Видим.   Явления Облачность Т
(С)
Тd
(С)
f
(%)
Тe
(С)
Тes
(С)
Комфортность P
(гПа)
Po
(гПа)
Тmin
(С)
Tmax
(С)
R
(мм)
R24
(мм)
S
(см)
21 18.04 С 3 50 км 10/10 200 м
[St]
-4.8 -5.3 96 -10 -10 1007.5 1000.9 -5.3 25
00 19.04 З 4 50 км 10/10 200 м
[St]
-3.5 -4.3 94 -10 -10 1008.1 1001.4
03 19.04 СЗ 5 50 км 9/9 200 м
[St]
-3.8 -4.8 93 -11 -10 1008.3 1001.7
06 19.04 СЗ 5 50 км 9/9 200 м
[St]
-3.6 -4.6 93 -11 -10 1008.5 1001.9
09 19.04 С 6 50 км 9/8 200 м
[St Ci fib]
-4.1 -4.8 95 -12 -12 1008.7 1002.0 -3.4
12 19.04 СЗ 7 50 км 10/10 200 м
[St]
-4.6 -5.1 96 -13 -13 1009.5 1002.9
15 19.04 СЗ 5 50 км 10/10 200 м
[St]
-4.8 -5.2 97 -12 -12 1009.6 1003.0
18 19.04 СЗ 1 50 км 1/1 200 м
[St]
-5.4 -6.1 95 -8 -8 1009.8 1003.2
21 19.04 СВ 7 50 км 6/0
[Ci fib]
-3.2 -10.5 57 -11 -10 1009.7 1003.1 -6.2 23
00 20.04 СВ 4 50 км 6/0
[Ci fib]
-1.9 -9.8 55 -7 -2 1010.0 1003.5
03 20.04 СЗ 2 50 км 8/0
[Ci fib]
-0.6 -8.3 56 -4 +5 1009.9 1003.4
06 20.04 С 2 50 км 9/0
[Ci fib]
-1.0 -5.8 70 -4 -1 1010.2 1003.6
09 20.04 СЗ 5 50 км 4/0
[Ci fib]
-1.5 -6.1 71 -8 -8 1010.5 1003.9 -0.1
12 20.04 С 6 50 км 3/0
[Ac trans Ci fib]
+0.1 -9.4 49 -6 -6 1010.8 1004.3
15 20.04 З 1 50 км 3/0
[Ac trans Ci fib]
-1.8 -6.4 71 -4 -4 1012.1 1005.5
18 20.04 ЮВ 3 50 км ясно -1.0 -6.8 65 -5 -5 1012.2 1005.6
21 20.04 СВ 2 50 км ясно -0.8 -6.8 64 -4 -2 1012.4 1005.8 -2.2 22
00 21.04 СЗ 3 50 км 1/0
[Ci fib]
-0.4 -5.8 67 -5 +2 1012.2 1005.6
03 21.04 СЗ 3 50 км 1/0
[Ci fib]
-0.1 -5.5 67 -4 +4 1012.7 1006.1
06 21.04 СЗ 4 50 км 3/0
[Ci fib]
-0.2 -5.6 67 -5 -2 1012.2 1005.6
09 21.04 С 4 50 км 4/0
[Ci fib]
-1.5 -4.2 82 -7 -7 1012.6 1006.0 +0.8
12 21.04 С 3 50 км 4/0
[Ci fib]
-0.3 -7.6 58 -4 -4 1012.9 1006.3
15 21.04 СВ 2 50 км 4/0
[Ci fib]
-0.3 -8.7 53 -3 -3 1012.5 1005.9
18 21.04 штиль 0 50 км 3/0
[Ci fib]
-2.3 -5.1 81 -3 -3 1012.2 1005.6
21 21.04 С 2 50 км 9/0
[Ci fib]
-1.3 -7.0 65 -5 -3 1011.9 1005.3 -2.4 22
00 22.04 СЗ 1 50 км 9/0
[Cs]
+1.1 -5.8 60 -0 +8 1011.1 1004.5
03 22.04 СЗ 3 50 км 9/0
[Cs]
+0.2 -5.6 65 -4 +3 1010.2 1003.7
06 22.04 С 4 50 км 9/0
[Ci fib]
+0.6 -4.8 67 -4 -2 1009.5 1003.0
09 22.04 С 3 50 км 9/3 1000 м
[Sc Cs]
+1.1 -5.6 61 -3 -3 1009.5 1003.0 +2.5
12 22.04 В 3 50 км 9/3 1000 м
[Sc Cs]
+1.5 -6.8 54 -2 -2 1010.0 1003.5
15 22.04 ЮВ 4 50 км 9/3 1000 м
[Sc Cs]
-1.2 -2.6 90 -7 -7 1011.3 1004.7
18 22.04 В 6
{10}
500 м туман ?/? -1.2 -2.0 94 -8 -8 1012.1 1005.5
21 22.04 В 3
{13}
2000 м слабый ливневой снег {туман} 10/10 600 м
[Cb cap]
-0.9 -2.2 91 -6 -6 1013.8 1007.2 -1.2 0.8 24
00 23.04 СВ 5
{11}
50 км {ливн. осадки, туман} 10/3 600 м
[Cb cap Cs]
+0.5 -3.1 77 -5 -3 1014.4 1007.8
03 23.04 В 2 50 км 10/6 600 м
[Sc Cs]
+2.5 -4.1 62 -0 +3 1014.8 1008.3
06 23.04 ЮВ 4 50 км 9/1 600 м
[Sc Ac trans Cs]
+1.6 -4.1 66 -3 -1 1014.9 1008.4
09 23.04 СЗ 3 50 км 9/1 600 м
[Sc Ac trans Cs]
+0.6 -3.7 73 -4 -4 1015.2 1008.6 +4.0 0.0
12 23.04 С 5 50 км 3/0
[Ci fib]
0.0 -4.4 72 -6 -6 1014.9 1008.3
15 23.04 СЗ 4 50 км 3/0
[Ci fib]
+0.1 -4.2 73 -5 -5 1013.9 1007.3
18 23.04 С 2 50 км ясно +0.7 -6.4 59 -2 -2 1013.2 1006.7
21 23.04 С 1 50 км ясно +1.5 -6.6 55 0 +3 1012.6 1006.1 -1.1 22
00 24.04 С 3 50 км 3/0
[Ci fib]
+2.5 -6.6 51 -1 +6 1011.7 1005.2
03 24.04 С 4 50 км 1/0
[Ac trans]
+1.1 -4.4 67 -4 +3 1010.5 1003.9
06 24.04 СЗ 6 50 км ясно -0.4 -2.3 87 -7 -5 1009.2 1002.6
09 24.04 С 8-11
{11}
50 км 3/0
[Ci fib]
-0.3 -4.0 76 -8 -8 1008.5 1002.0 +3.0
12 24.04 СЗ 10-15
{15}
50 км 3/0
[Ci fib]
-1.3 -4.6 78 -10 -10 1007.9 1001.4
15 24.04 З 8-11
{15}
50 км 9/3 600 м
[Sc Ci fib]
-2.2 -3.5 91 -10 -10 1007.5 1000.9
18 24.04 ЮЗ 4
{12}
50 км 10/10 200 м
[St]
-3.5 -4.2 95 -10 -10 1006.3 999.7
21 24.04 ЮЗ 4-10
{10}
50 км 10/10 300 м
[St]
-3.0 -4.4 90 -9 -9 1004.3 997.7 -3.8 22
00 25.04 З 6
{12}
4000 м слабый ливневой снег 10/10 300 м
[Cb cap]
-2.1 -3.1 93 -9 -9 1002.5 996.0
03 25.04 З 7-10
{10}
4000 м слабый ливневой снег 10/10 300 м
[Cb cap]
-1.7 -2.5 94 -9 -9 1002.0 995.4
06 25.04 З 3
{10}
4000 м слабый ливневой снег 10/10 300 м
[Cb cap]
-1.8 -2.4 96 -7 -7 1000.1 993.6
09 25.04 З 5 50 км в посл. час ливневой снег 10/10 300 м
[Cb cap]
-1.8 -2.5 95 -9 -9 999.1 992.6 -1.5 0.6
12 25.04 СЗ 4
{10}
50 км {ливн. осадки} 9/9 300 м
[Cb cap]
-2.1 -3.5 90 -8 -8 998.8 992.2
15 25.04 СЗ 4 50 км 8/8 300 м
[Cb cap]
-2.8 -3.6 94 -9 -9 998.0 991.4
18 25.04 С 3 50 км 3/3 300 м
[St]
-3.7 -4.2 96 -9 -9 998.8 992.2

 

Местоположение метеостанции Остров Спафарьева (Магаданская область, Россия): широта 59.15 долгота 149.00 высота над уровнем моря 52 м.

В архиве по умолчанию представлена погода на Остров Спафарьева за последнюю неделю. Архивные данные за месяц целиком и за предыдущие месяцы, начиная с января 2011 года, Вы можете получить, выбрав интересующий диапазон дат из раскрывающегося списка и нажав кнопку "Ввод!".


*Определитесь, кто Вы:
робот инопланетянин человек

Внимание! Время в таблицах - всемирное. Для получения местного времени необходимо прибавить поправку, которая на Остров Спафарьева равна 11 ч.

Смотрите также архив погоды в соседних городах и на ближайших метеорологических станциях:

Погода в Талоне (Магаданская область, Россия) (72 км)
Погода в Армани (Магаданская область, Россия) (84 км)
Погода в Нагаева (Магаданская область, Россия) (106 км)
Погода в Магадане (Магаданская область, Россия) (106 км)
Погода в Оле (Магаданская область, Россия) (133 км)
Погода на Мысе Алевина (Магаданская область, Россия) (137 км)
Погода в Палатке (Магаданская область, Россия) (150 км)
Погода в Мадауне (Магаданская область, Россия) (187 км)
Погода в Усть-Омчуге (Магаданская область, Россия) (222 км)
Погода на Мысе Братьев (Магаданская область, Россия) (245 км)

Пояснения к столбцам:

Ветер - указаны скорость ветра в м/с - средняя за 10 мин, порывы в срок и между сроками (в фигурных скобках) и направление, откуда дует ветер: С - северный, СВ - северо-восточный, В - восточный, ЮВ - юго-восточный, Ю - южный, ЮЗ - юго-западный, З - западный, СЗ - северо-западный.
Видимость - горизонтальная дальность видимости в метрах или километрах. При видимости от 1 до 10 км при отсутствии осадков обычно наблюдается дымка, при ухудшении видимости до 1 км и менее - туман. В сухую погоду видимость может ухудшаться дымом, пылью или мглою.
Явления - указаны атмосферные явления, наблюдавшиеся в срок или в последний час перед сроком; фигурными скобками обозначены явления, наблюдавшиеся между сроками (за 1-3 часа до срока); квадратными скобками обозначены град или гололедные отложения с указанием их диаметра в мм.
Облачность - указаны через наклонную черту общая и нижняя облачность в баллах и высота нижней границы облаков в метрах; квадратными скобками обозначены формы облаков: Ci - перистые, Cs - перисто-слоистые, Cc - перисто-кучевые, Ac - высококучевые, As - высокослоистые, Sc - слоисто-кучевые, Ns - слоисто-дождевые, Cu - кучевые, Cb - кучево-дождевые. Подробнее классификацию облаков см. в Атласе облаков (PDF).
T - Температура воздуха - температура, измеренная на высоте 2 м над землей.
Td - Температура точки росы - температура, при понижении до которой содержащийся в воздухе водяной пар достигнет насыщения.
f - Относительная влажность воздуха - влажноcть воздуха, измеренная на высоте 2 м над землей.
Te - Эффективная температура - температура, которую ощущает одетый по сезону человек в тени. Характеристика душности погоды. При расчете учитывается влияние влажности воздуха и скорости ветра на теплоощущения человека.
Tes - Эффективная температура на солнце - температура, которую ощущает человек, с поправкой на солнечный нагрев. Характеристика знойности погоды. Зависит от высоты солнца над горизонтом, облачности и скорости ветра. Ночью, в пасмурную погоду, а также при ветре 12 м/с и более поправка равна нулю.
P - Атмосферное давление - приведенное к уровню моря атмосферное давление.
Po - Атмосферное давление - измеренное на уровне метеостанции атмосферное давление.
Tmin - Минимальная температура - минимум температуры воздуха на высоте 2 м над землей.
Tmax - Максимальная температура - максимум температуры воздуха на высоте 2 м над землей.
R - Количество осадков - Количество выпавших осадков за период времени, мм. При наведении курсора мыши на число - период времени, за который выпало указанное количество осадков.
R24 - Количество осадков - Количество выпавших осадков за 24 часа, мм.
S - Снежный покров - Высота снежного покрова, см. При наведении курсора мыши на число - состояние снежного покрова и степень покрытия местности в баллах.